DW0708 Weather Reports


Display with metric or nautical units.
time (UTC)temp
F
wind
direction
speed
MPH
gust
MPH
rain 1hr
in
rain 24hr
in
rain mn
in
humidity
%
barometer
mb
20260502130509 51 0 0.0 0.0 0.00 2.13 0.01 96 1020.1
20260502123508 50 0 0.0 2.0 0.00 2.60 0.01 95 1019.4
20260502123033 50 0 0.0 2.0 0.00 2.60 0.01 95 1019.2
20260502122511 50 306 0.0 2.0 0.00 2.60 0.01 95 1019.2
20260502122011 50 0 0.0 2.0 0.00 2.60 0.01 95 1019.2
20260502121527 50 0 0.0 0.0 0.00 2.60 0.01 95 1019.0
20260502121010 50 0 0.0 0.0 0.00 2.60 0.01 95 1018.8
20260502120511 50 0 0.0 0.0 0.00 2.60 0.01 95 1018.8
20260502115511 50 0 0.0 1.0 0.00 2.96 0.01 95 1018.8
20260502115012 50 0 0.0 1.0 0.00 2.96 0.01 95 1018.6
20260502114528 50 0 0.0 0.0 0.00 2.96 0.01 95 1018.6
20260502114012 50 0 0.0 0.0 0.00 2.96 0.01 95 1018.6
20260502113513 50 0 0.0 0.0 0.00 2.96 0.01 95 1018.6
20260502113027 50 0 0.0 0.0 0.00 2.96 0.01 95 1018.5
20260502112530 50 0 0.0 0.0 0.00 2.96 0.01 95 1018.6
20260502112013 51 0 0.0 0.0 0.00 2.96 0.01 95 1018.6
20260502111529 51 0 0.0 0.0 0.00 2.96 0.01 95 1018.4
20260502111013 51 0 0.0 1.0 0.00 2.96 0.01 95 1018.4
20260502110510 51 0 0.0 1.0 0.00 2.96 0.01 95 1018.2
20260502110029 51 0 0.0 1.0 0.00 2.96 0.01 95 1018.2
20260502105513 51 0 0.0 1.0 0.00 3.19 0.01 95 1018.2
20260502105015 51 0 0.0 1.0 0.00 3.19 0.01 95 1018.2
20260502104527 51 0 0.0 1.0 0.00 3.19 0.01 95 1018.1
20260502104013 51 0 0.0 1.0 0.00 3.19 0.01 95 1018.0
20260502103510 51 0 0.0 1.0 0.00 3.19 0.01 95 1018.1
20260502103032 51 0 0.0 1.0 0.00 3.19 0.01 95 1018.0
20260502102514 51 0 0.0 2.0 0.00 3.19 0.01 95 1018.0
20260502102014 51 0 0.0 2.0 0.00 3.19 0.01 95 1017.9
20260502101540 51 0 0.0 2.0 0.00 3.19 0.01 95 1017.8
20260502101013 51 0 0.0 1.0 0.00 3.19 0.01 95 1017.9
20260502100516 51 0 0.0 2.0 0.00 3.19 0.01 95 1017.8
20260502091528 52 0 0.0 3.0 0.00 3.48 0.01 95 1017.0
20260502091011 52 0 0.0 4.0 0.00 3.48 0.01 95 1016.9
20260502090512 52 0 0.0 4.0 0.00 3.48 0.01 95 1016.8
20260502071529 53 360 1.0 6.0 0.00 3.69 0.01 95 1016.6
20260502071011 53 0 1.0 5.0 0.00 3.69 0.01 95 1016.7
20260502070517 53 0 1.0 4.0 0.00 3.69 0.01 95 1016.8
20260502070028 53 319 0.0 8.0 0.00 3.69 0.01 95 1016.7
20260502065512 53 0 1.0 8.0 0.00 3.70 0.01 95 1016.8
20260502065014 53 1 0.0 10.0 0.00 3.70 0.01 95 1016.8
20260502064526 53 311 1.0 10.0 0.00 3.70 0.01 95 1016.8
20260502064012 53 0 2.0 10.0 0.00 3.70 0.01 95 1016.6
20260502063510 53 333 3.0 10.0 0.00 3.70 0.01 95 1016.6
20260502063030 53 0 1.0 8.0 0.00 3.70 0.01 95 1016.5
20260502062511 53 0 1.0 8.0 0.00 3.70 0.01 95 1016.5
20260502062016 53 0 0.0 7.0 0.00 3.70 0.01 96 1016.5
20260502061529 53 0 0.0 8.0 0.00 3.70 0.01 96 1016.4
20260502061011 53 0 1.0 8.0 0.00 3.70 0.01 95 1016.4
20260502060513 53 7 1.0 8.0 0.00 3.70 0.01 95 1016.2
20260502060027 53 0 1.0 8.0 0.01 3.70 0.01 95 1016.4
20260502055511 53 1 1.0 12.0 0.01 3.77 0.01 95 1016.5
20260502055016 53 21 4.0 12.0 0.01 3.77 0.01 95 1016.5
20260502054527 53 29 2.0 10.0 0.01 3.77 0.01 95 1016.4
20260502054010 53 37 1.0 12.0 0.01 3.77 0.01 95 1016.4
20260502053514 54 84 3.0 12.0 0.01 3.77 0.01 95 1016.5
20260502053030 54 43 2.0 12.0 0.01 3.77 0.01 96 1016.7
20260502052513 54 0 2.0 12.0 0.01 3.77 0.01 95 1016.5
20260502052013 54 0 3.0 12.0 0.01 3.77 0.01 95 1016.5
20260502051529 54 344 4.0 12.0 0.01 3.77 0.01 96 1016.5
20260502051010 54 359 4.0 14.0 0.01 3.77 0.01 96 1016.5
20260502050511 54 6 3.0 14.0 0.01 3.77 0.01 96 1016.5
20260502050037 54 6 2.0 14.0 0.00 3.76 0.00 96 1016.5
20260502045512 54 37 2.0 12.0 0.00 3.79 3.76 96 1016.3
20260502045017 54 349 2.0 11.0 0.00 3.79 3.76 95 1016.3
20260502044531 54 0 1.0 11.0 0.00 3.79 3.76 95 1016.3
20260502044012 54 352 0.0 9.0 0.00 3.79 3.76 95 1016.3
20260502043512 54 18 3.0 9.0 0.00 3.79 3.76 95 1016.3
20260502043027 54 0 1.0 9.0 0.00 3.79 3.76 95 1016.2
20260502042513 54 0 1.0 8.0 0.00 3.79 3.76 96 1016.2
20260502042016 54 0 1.0 8.0 0.00 3.79 3.76 96 1016.2
20260502041537 54 323 0.0 13.0 0.00 3.79 3.76 96 1016.2
20260502041013 54 0 1.0 13.0 0.00 3.79 3.76 96 1016.1
20260502040512 55 33 3.0 11.0 0.00 3.79 3.76 96 1016.3
20260502040026 55 0 3.0 9.0 0.00 3.79 3.76 96 1016.3
20260502035513 55 0 2.0 8.0 0.00 3.79 3.76 96 1016.4
20260502035013 55 0 0.0 10.0 0.00 3.79 3.76 96 1016.4
20260502034528 55 0 0.0 10.0 0.00 3.79 3.76 96 1016.4
20260502034011 55 0 3.0 12.0 0.00 3.79 3.76 96 1016.3
20260502033514 55 263 1.0 12.0 0.00 3.79 3.76 96 1016.4
20260502033031 55 0 3.0 12.0 0.00 3.79 3.76 96 1016.3
20260502032515 55 0 1.0 7.0 0.00 3.79 3.76 96 1016.2
20260502032014 55 0 2.0 7.0 0.00 3.79 3.76 96 1016.2
20260502031530 54 0 0.0 7.0 0.00 3.79 3.76 96 1016.1
20260502031010 54 0 1.0 7.0 0.00 3.79 3.76 96 1016.0
20260502030512 54 0 1.0 9.0 0.00 3.79 3.76 96 1015.9
20260502030030 54 0 1.0 10.0 0.00 3.79 3.76 95 1015.9
20260502025510 54 32 2.0 10.0 0.00 3.79 3.76 95 1015.7
20260502025012 54 356 0.0 5.0 0.00 3.79 3.76 96 1015.5
20260502024529 54 6 0.0 6.0 0.00 3.79 3.76 96 1015.3
20260502024013 54 0 1.0 12.0 0.00 3.79 3.76 95 1014.9
20260502023513 55 0 0.0 12.0 0.00 3.79 3.76 95 1014.6
20260502023029 55 0 3.0 12.0 0.00 3.79 3.76 95 1014.6
20260502022511 55 25 1.0 14.0 0.01 3.79 3.76 95 1014.9
20260502022014 55 0 1.0 14.0 0.01 3.79 3.76 95 1014.7
20260502021527 55 46 2.0 14.0 0.01 3.79 3.76 95 1014.7
20260502021012 55 0 3.0 14.0 0.01 3.79 3.76 95 1014.9
20260502020510 55 8 2.0 9.0 0.01 3.79 3.76 95 1014.9
20260502020030 55 345 2.0 10.0 0.01 3.79 3.76 95 1014.7
20260502015513 55 0 1.0 10.0 0.02 3.79 3.76 96 1014.7
20260502015015 56 45 1.0 10.0 0.02 3.79 3.76 95 1014.6
20260502014530 56 0 1.0 13.0 0.02 3.79 3.76 95 1014.4
20260502014012 56 0 4.0 13.0 0.03 3.79 3.76 95 1014.2
20260502013512 56 0 2.0 9.0 0.05 3.79 3.76 95 1014.0
20260502013029 56 0 2.0 9.0 0.06 3.79 3.76 95 1013.9
20260502012515 56 1 2.0 9.0 0.05 3.78 3.75 95 1013.9
20260502012011 57 19 1.0 8.0 0.06 3.78 3.75 95 1014.1
20260502011527 57 273 0.0 7.0 0.06 3.78 3.75 95 1014.5
20260502011012 57 0 0.0 7.0 0.07 3.78 3.75 96 1014.6
20260502010512 57 0 0.0 7.0 0.08 3.78 3.75 96 1014.5
20260502010030 57 50 1.0 6.0 0.07 3.77 3.74 96 1014.3
20260502005512 57 0 0.0 13.0 0.08 3.77 3.74 95 1013.6
20260502005011 57 8 2.0 13.0 0.09 3.77 3.74 95 1013.2
20260502004530 57 28 2.0 13.0 0.10 3.77 3.74 96 1013.0
20260502004011 58 2 3.0 13.0 0.10 3.75 3.72 96 1012.9
20260502003513 58 0 3.0 13.0 0.10 3.74 3.71 95 1013.0
20260502003027 58 29 0.0 6.0 0.09 3.73 3.70 96 1013.3
20260502002510 58 0 0.0 5.0 0.10 3.72 3.69 96 1013.7
20260502002014 58 0 0.0 6.0 0.11 3.72 3.69 96 1013.8
20260502001528 58 360 1.0 7.0 0.12 3.71 3.68 96 1013.6
20260502001011 58 0 0.0 7.0 0.13 3.71 3.68 96 1013.3
20260502000511 58 25 0.0 7.0 0.13 3.70 3.67 96 1013.5
20260502000029 58 0 0.0 5.0 0.14 3.70 3.67 96 1013.4
20260501235512 58 0 0.0 5.0 0.15 3.69 3.66 96 1012.8
20260501235010 58 0 0.0 5.0 0.16 3.68 3.65 96 1012.9
20260501234528 58 0 0.0 8.0 0.20 3.67 3.64 96 1013.4
20260501234011 58 359 1.0 8.0 0.22 3.65 3.62 96 1013.3
20260501233513 58 17 0.0 5.0 0.21 3.64 3.61 96 1012.7
20260501233028 58 0 0.0 7.0 0.20 3.63 3.60 96 1012.7
20260501232511 58 1 0.0 7.0 0.19 3.62 3.59 96 1012.8
20260501232009 58 0 1.0 7.0 0.17 3.60 3.57 96 1012.1
20260501231546 58 344 1.0 7.0 0.16 3.59 3.56 96 1011.5
20260501231010 58 105 0.0 7.0 0.15 3.58 3.55 96 1012.0
20260501230513 58 90 1.0 7.0 0.14 3.57 3.54 96 1012.0
20260501230027 58 0 1.0 8.0 0.13 3.56 3.53 96 1011.8
20260501225512 58 82 1.0 10.0 0.11 3.54 3.51 95 1011.9
20260501225014 58 26 2.0 11.0 0.09 3.51 3.48 95 1012.3
20260501224527 59 39 4.0 11.0 0.05 3.46 3.43 95 1011.2
20260501224010 59 22 3.0 11.0 0.04 3.43 3.40 96 1010.2
20260501223515 59 30 1.0 11.0 0.06 3.43 3.40 96 1010.7
20260501223039 59 50 2.0 15.0 0.08 3.43 3.40 95 1010.6
20260501222510 59 0 2.0 15.0 0.10 3.43 3.40 95 1010.2
20260501222013 59 18 1.0 15.0 0.12 3.43 3.40 95 1010.2
20260501221528 60 338 1.0 15.0 0.14 3.43 3.40 96 1010.6
20260501221010 60 8 2.0 15.0 0.14 3.43 3.40 96 1011.0
20260501220511 60 0 0.0 14.0 0.15 3.43 3.40 96 1011.2
20260501220029 60 0 1.0 11.0 0.16 3.43 3.40 96 1011.5
20260501215511 60 0 1.0 11.0 0.15 3.42 3.39 96 1011.6
20260501215012 60 0 0.0 10.0 0.16 3.42 3.39 96 1012.1
20260501214530 59 18 0.0 11.0 0.15 3.40 3.37 96 1012.2
20260501214012 59 0 1.0 12.0 0.15 3.39 3.36 96 1012.0
20260501213511 59 0 1.0 12.0 0.13 3.37 3.34 96 1012.0
20260501213033 60 60 2.0 11.0 0.12 3.35 3.32 95 1011.7
20260501212511 60 329 2.0 9.0 0.10 3.32 3.29 96 1011.7
20260501212012 60 34 2.0 9.0 0.09 3.30 3.27 96 1011.7
20260501211527 60 352 0.0 6.0 0.09 3.29 3.26 96 1011.8
20260501211016 60 333 0.0 6.0 0.11 3.29 3.26 96 1011.5
20260501210510 60 31 1.0 11.0 0.11 3.28 3.25 96 1010.9
20260501210033 60 0 0.0 11.0 0.11 3.27 3.24 95 1010.7
20260501205511 60 1 4.0 11.0 0.10 3.26 3.23 95 1010.1
20260501205013 60 11 1.0 10.0 0.09 3.25 3.22 96 1010.2
20260501204533 60 46 3.0 10.0 0.10 3.25 3.22 96 1011.0
20260501204012 60 34 3.0 10.0 0.10 3.24 3.21 96 1011.0
20260501203511 60 352 1.0 19.0 0.10 3.23 3.20 96 1011.1
20260501203031 60 227 4.0 19.0 0.10 3.23 3.20 95 1010.8
20260501202513 60 345 4.0 12.0 0.10 3.22 3.19 95 1010.3
20260501202015 61 1 1.0 14.0 0.12 3.21 3.18 95 1010.2
20260501201528 61 346 4.0 14.0 0.10 3.19 3.16 96 1010.0
20260501201012 61 359 4.0 9.0 0.09 3.18 3.15 96 1010.2
20260501200512 61 4 1.0 8.0 0.08 3.17 3.14 96 1011.0
20260501200027 61 37 2.0 8.0 0.07 3.16 3.13 95 1010.8
20260501195512 61 311 2.0 7.0 0.07 3.16 3.13 95 1011.1
20260501195012 61 359 0.0 9.0 0.07 3.16 3.13 96 1011.3
20260501194526 61 0 1.0 9.0 0.06 3.15 3.12 96 1011.2
20260501194010 61 10 2.0 9.0 0.05 3.14 3.11 96 1010.8
20260501193510 61 348 2.0 7.0 0.04 3.13 3.10 95 1010.7
20260501193031 61 360 1.0 7.0 0.04 3.13 3.10 96 1010.6
20260501192511 61 0 0.0 5.0 0.03 3.12 3.09 96 1010.5
20260501192010 61 46 2.0 5.0 0.00 3.09 3.06 96 1010.4
20260501191532 61 348 0.0 7.0 0.01 3.09 3.06 96 1010.9
20260501191011 61 0 0.0 7.0 0.01 3.09 3.06 96 1010.7
20260501190513 61 0 1.0 8.0 0.01 3.09 3.06 96 1010.3
20260501190030 61 7 2.0 9.0 0.02 3.09 3.06 95 1010.3
20260501185511 61 0 2.0 9.0 0.02 3.09 3.06 96 1009.7
20260501185013 61 37 2.0 8.0 0.02 3.09 3.06 96 1009.6
20260501184527 61 23 1.0 9.0 0.03 3.09 3.06 96 1010.2
20260501184012 61 0 1.0 11.0 0.03 3.09 3.06 96 1010.4
20260501183511 61 0 0.0 11.0 0.04 3.09 3.06 96 1010.6
20260501183033 61 0 2.0 11.0 0.05 3.09 3.06 96 1009.9
20260501182509 61 49 0.0 6.0 0.05 3.09 3.06 96 1009.6
20260501182011 61 0 0.0 10.0 0.06 3.09 3.06 95 1009.4
20260501181534 61 0 1.0 12.0 0.05 3.08 3.05 96 1008.0
20260501181011 61 0 0.0 12.0 0.05 3.08 3.05 96 1008.9
20260501180512 61 338 2.0 10.0 0.05 3.07 3.04 96 1008.9
20260501180029 61 0 3.0 12.0 0.05 3.07 3.04 96 1008.1
20260501175511 61 0 1.0 12.0 0.05 3.07 3.04 95 1009.3
20260501175010 62 25 2.0 12.0 0.05 3.07 3.04 96 1010.1
20260501174535 62 0 1.0 12.0 0.04 3.06 3.03 96 1010.5
20260501174012 62 1 2.0 9.0 0.04 3.06 3.03 96 1010.5
20260501173511 62 8 1.0 13.0 0.03 3.05 3.02 96 1011.0
20260501173026 62 340 3.0 13.0 0.03 3.04 3.01 95 1011.3
20260501172509 62 44 1.0 10.0 0.03 3.04 3.01 96 1011.8
20260501172012 62 0 1.0 8.0 0.04 3.03 3.00 96 1011.7
20260501171533 62 0 1.0 8.0 0.06 3.03 3.00 96 1011.7
20260501171011 62 345 0.0 5.0 0.08 3.03 3.00 95 1011.5
20260501170516 62 0 1.0 6.0 0.08 3.02 2.99 95 1011.7
20260501170028 62 0 1.0 9.0 0.10 3.02 2.99 95 1011.5
20260501165515 62 6 2.0 9.0 0.11 3.02 2.99 96 1011.3
20260501165014 62 33 1.0 8.0 0.13 3.02 2.99 96 1011.5
20260501164534 61 0 1.0 8.0 0.17 3.02 2.99 96 1011.9
20260501164016 61 14 2.0 12.0 0.21 3.02 2.99 96 1012.2
20260501163509 61 0 3.0 12.0 0.27 3.02 2.99 95 1012.3
20260501163029 61 7 3.0 8.0 0.32 3.01 2.98 95 1012.6
20260501162509 61 40 2.0 8.0 0.35 3.00 2.97 95 1013.0
20260501162011 61 7 1.0 10.0 0.35 2.98 2.95 95 1013.2
20260501161530 61 8 2.0 10.0 0.35 2.97 2.94 96 1013.4
20260501161012 61 0 2.0 10.0 0.33 2.95 2.92 95 1013.2
20260501160510 61 326 1.0 10.0 0.32 2.94 2.91 95 1013.2
20260501160028 61 315 2.0 9.0 0.30 2.92 2.89 95 1013.3
20260501155513 61 307 2.0 10.0 0.28 2.90 2.87 95 1013.4
20260501155016 61 1 2.0 10.0 0.26 2.88 2.85 95 1013.7
20260501154527 61 359 2.0 9.0 0.23 2.84 2.81 95 1013.6
20260501154013 61 0 0.0 7.0 0.19 2.80 2.77 95 1013.9
20260501153509 61 0 1.0 5.0 0.13 2.73 2.70 95 1013.6
20260501153028 61 324 1.0 5.0 0.09 2.68 2.65 95 1013.5
20260501152513 61 0 0.0 2.0 0.06 2.64 2.61 95 1013.6
20260501152013 61 0 0.0 3.0 0.08 2.63 2.60 95 1013.3
20260501151527 61 0 0.0 9.0 0.12 2.62 2.59 95 1012.8
20260501151014 61 0 0.0 9.0 0.18 2.62 2.59 95 1012.2
20260501150509 61 52 1.0 7.0 0.24 2.62 2.59 95 1012.0
20260501150034 61 23 1.0 7.0 0.27 2.62 2.59 95 1011.9
20260501145515 61 18 1.0 6.0 0.30 2.62 2.59 95 1012.1
20260501145011 61 0 1.0 7.0 0.38 2.62 2.59 95 1012.0
20260501144533 61 338 1.0 7.0 0.44 2.61 2.58 95 1012.0